Wind_Speed
19 21 20 18 20 19 19 15 12 12 13 11 15 9 8 7 7 7 8 7 7 7 6 6 5 4 5 5 6 8 9 11 13 14 16 17 18 18 18 21 22 22 22
21 23 22 23 21 24 22 22 19 19 18 17 16 13 10 8 8 8 7 6 4 3 3 2 1 2 3 5 6 8 9 9 12 13 14 15 16 15 16 17 19 20 22
25 25 25 25 25 25 27 26 26 25 24 23 20 17 13 10 9 9 9 7 7 6 6 6 6 5 5 5 6 7 6 6 9 12 13 13 14 14 14 13 15 18 20
17 11 31 30 28 26 29 30 30 29 26 24 22 20 17 13 10 10 10 10 8 7 8 8 7 7 7 8 6 6 5 8 10 10 12 12 13 13 13 12 11 15 19
40 34 38 37 42 34 33 32 34 34 32 28 26 23 19 17 16 15 13 13 12 12 12 11 11 11 10 10 10 10 10 11 11 11 11 12 11 11 11 11 9 12 13
56 54 45 34 40 40 39 36 35 37 36 34 32 29 28 25 22 22 20 17 15 14 15 15 14 14 13 12 12 13 14 12 12 12 12 11 11 9 8 9 9 10 10
58 58 52 45 38 35 39 38 37 37 38 38 40 37 35 33 31 29 27 24 22 19 19 18 17 17 18 16 16 14 13 13 13 13 9 9 10 6 7 6 7 7 8
64 62 56 51 51 42 38 41 40 39 38 41 43 44 43 40 37 36 33 31 28 26 24 23 22 20 18 18 18 16 14 13 11 12 8 6 4 3 4 4 5 6 6
76 69 61 56 52 49 50 45 42 40 39 38 42 45 47 46 43 41 39 36 35 33 30 27 26 24 20 20 20 19 18 13 13 12 6 6 2 3 3 2 2 4 3
78 80 67 59 56 53 50 53 49 47 47 45 42 45 44 49 46 44 43 42 41 40 34 32 31 28 23 20 21 20 22 14 17 15 9 8 7 4 3 2 2 1 2
75 74 69 65 62 63 60 60 58 58 58 52 48 46 45 45 42 40 41 41 43 43 38 35 32 28 23 21 22 23 24 15 19 19 13 10 10 8 7 7 6 4 3
80 78 76 73 70 69 69 66 63 60 58 58 57 52 49 49 45 42 40 39 38 38 37 37 30 28 27 23 22 26 27 19 20 22 17 12 12 12 11 9 10 10 9
87 85 83 80 78 76 74 72 68 66 63 60 57 58 54 52 51 43 41 39 35 34 35 33 26 25 24 25 26 27 26 22 20 20 18 14 14 14 13 13 14 12 13
92 91 90 88 86 84 80 78 74 71 69 67 62 60 58 56 53 49 43 39 41 36 33 30 31 20 20 25 26 26 27 20 16 17 18 16 16 17 18 16 16 16 17
99 97 95 94 93 92 89 85 82 78 75 74 71 66 64 63 59 55 48 47 48 45 41 40 39 35 34 33 29 27 24 20 12 12 15 20 23 25 25 20 19 20 21
107 105 103 101 98 96 94 92 89 87 84 80 77 73 72 69 66 64 58 55 55 55 47 45 49 42 38 32 31 29 21 15 8 6 11 17 24 27 28 29 26 27 28
115 113 111 108 106 104 101 97 94 93 91 88 86 82 78 77 73 70 66 61 63 60 54 50 52 51 45 39 37 31 25 23 23 23 19 18 26 29 34 33 32 31 33
124 121 119 116 114 111 108 104 102 99 97 94 93 89 86 86 82 77 78 71 68 66 63 58 55 58 51 44 43 39 35 33 33 35 39 46 59 44 48 40 39 34 35
134 131 129 125 122 119 116 112 108 106 103 101 98 96 97 93 90 87 86 82 79 75 71 69 65 61 61 54 50 45 44 41 43 35 38 36 49 55 51 50 47 37 33
141 139 137 134 132 129 125 122 118 114 110 108 105 104 103 100 96 96 93 93 90 84 79 76 74 69 65 61 56 52 49 50 48 45 42 34 36 48 53 55 59 50 45
141 141 142 142 141 138 135 133 129 125 120 115 111 110 110 107 102 101 104 98 98 95 90 85 81 77 76 71 65 62 59 57 60 54 51 43 41 67 63 58 58 58 51
126 130 133 137 141 141 140 139 137 134 130 125 122 118 115 111 107 106 108 107 105 102 99 95 91 86 83 80 77 73 72 68 66 64 67 47 48 55 58 59 60 62 59
117 118 119 120 124 128 133 139 140 138 136 133 131 128 123 119 115 110 114 118 111 109 103 102 99 93 91 88 86 83 82 80 79 75 76 73 54 56 59 59 60 64 66
105 108 110 113 115 117 119 122 129 136 140 139 136 133 131 128 125 122 120 119 116 115 113 107 107 104 101 98 95 92 89 88 87 84 83 79 81 73 69 68 67 69 71
90 95 98 102 105 107 110 113 117 122 129 134 136 136 136 134 131 129 126 124 121 120 119 117 113 111 110 106 104 101 98 96 93 92 90 87 85 85 81 79 79 77 78
76 79 83 87 91 95 100 105 109 113 115 117 122 130 135 133 132 133 132 132 129 125 123 122 120 117 116 113 110 110 106 106 102 98 97 94 92 92 87 85 88 91 89
Wind_Direction
281 277 278 286 269 251 238 214 192 217 216 215 235 193 192 158 153 127 136 120 121 108 103 98 78 58 44 36 28 19 13 13 18 20 15 15 19 19 18 16 21 28 29
289 287 268 273 267 261 252 233 205 203 220 212 209 209 205 196 185 161 155 172 176 167 175 161 136 348 346 343 350 353 0 5 9 8 6 4 14 20 19 20 16 27 29
278 281 266 267 270 255 260 250 231 215 216 223 227 231 227 221 210 191 185 188 199 208 223 237 239 249 269 287 308 322 339 339 345 348 350 359 3 7 17 23 23 32 39
237 271 278 269 254 253 252 250 242 237 227 223 228 231 238 240 247 230 226 231 249 264 259 247 254 260 265 271 273 275 280 299 326 335 350 352 0 354 6 22 32 34 46
239 238 253 262 260 256 246 247 245 241 242 240 234 237 241 242 244 246 251 256 252 263 279 271 272 262 265 273 276 281 290 307 319 332 336 347 348 352 358 0 16 24 43
248 244 249 243 253 254 245 243 241 244 241 240 243 243 242 242 244 245 250 257 260 268 271 275 289 273 269 272 276 282 290 305 312 329 340 349 344 355 354 354 4 21 30
239 237 246 233 227 233 242 245 247 243 244 241 240 240 243 244 246 250 252 253 256 261 265 274 274 281 274 273 273 279 285 296 309 318 329 335 345 8 11 17 5 22 29
222 231 242 237 233 227 223 241 247 249 245 243 243 241 240 240 241 246 249 255 259 259 258 266 271 275 274 277 274 273 276 279 291 299 309 311 339 1 10 26 39 40 58
223 230 238 235 233 228 227 227 235 246 247 252 249 246 246 245 244 246 249 251 253 256 257 258 262 266 263 269 268 269 268 271 277 270 258 271 264 334 79 67 67 58 59
231 234 238 236 235 230 229 228 234 235 236 238 248 248 247 248 248 249 248 250 253 252 249 253 255 256 256 261 262 263 264 257 261 261 229 242 242 239 256 247 247 114 60
235 238 238 237 235 235 233 235 237 235 239 239 241 245 245 245 243 245 249 248 249 252 252 249 251 255 257 253 253 259 262 245 251 253 237 231 250 242 238 239 251 256 269
238 238 238 238 237 236 239 240 241 240 239 240 242 243 244 245 242 241 243 244 241 244 247 249 250 254 255 256 249 251 257 245 243 248 248 236 245 251 257 252 246 261 267
239 239 240 240 239 239 239 239 239 241 241 241 240 241 241 242 244 239 241 240 231 229 236 245 244 246 252 256 256 257 254 256 246 251 256 244 247 251 254 247 251 244 255
239 240 240 240 241 241 239 240 239 239 240 241 239 236 238 240 241 239 236 229 213 218 219 230 247 244 258 256 251 252 254 255 266 269 271 276 267 266 265 256 258 255 262
241 241 240 240 241 241 241 240 240 239 239 239 240 235 237 237 239 236 231 224 220 221 225 231 234 239 235 236 240 247 254 267 277 282 294 291 293 298 286 272 265 263 264
242 242 242 242 242 242 242 241 241 240 238 238 239 237 234 236 236 235 228 228 228 226 225 227 228 236 238 237 239 244 244 248 248 300 295 277 274 277 280 278 272 272 267
243 243 243 243 243 242 242 242 242 241 240 237 236 237 235 234 235 236 235 231 231 229 226 228 231 233 231 234 230 230 235 236 233 236 245 284 291 277 283 266 275 282 275
246 245 245 244 243 243 242 242 241 241 241 240 238 236 236 234 232 231 237 234 234 231 230 229 231 234 231 231 232 234 228 231 231 235 234 282 292 268 277 269 277 274 272
245 245 246 245 245 245 244 244 242 241 240 240 239 238 237 236 235 232 232 235 235 233 231 232 231 233 234 235 230 231 230 234 240 241 242 237 247 257 270 271 270 272 269
246 246 246 246 246 246 245 244 243 242 240 240 239 239 238 236 235 235 234 231 234 233 232 233 234 232 233 236 234 229 225 229 237 245 236 222 254 260 262 263 264 267 274
245 245 245 245 244 245 245 245 244 243 242 240 239 239 239 238 235 234 236 235 233 233 233 233 231 230 231 235 235 228 227 231 234 241 242 235 225 245 253 250 255 256 259
246 246 245 245 244 245 245 245 244 244 243 242 240 239 238 238 236 234 236 237 235 235 234 234 231 230 231 232 234 232 231 233 235 233 221 230 235 237 244 246 249 252 255
248 248 248 247 246 245 245 245 244 244 243 242 241 240 239 238 237 234 235 235 235 235 235 232 231 231 231 230 231 234 234 234 238 237 239 238 238 243 245 246 249 254 259
249 249 248 246 246 245 244 243 243 243 242 241 240 239 239 237 236 235 235 235 235 236 237 235 232 232 234 232 231 233 234 234 237 241 240 242 244 243 245 248 252 254 257
248 248 248 247 246 245 244 243 242 241 240 240 240 239 238 237 236 235 234 235 235 234 235 236 235 235 235 235 233 233 234 235 235 237 241 244 246 246 250 252 253 254 257
251 250 248 246 246 246 245 244 243 243 241 240 239 239 239 238 236 236 234 234 234 234 234 235 235 235 236 235 235 236 235 236 236 238 239 240 245 248 250 251 254 255 254
Height
11007 11011 11015 11018 11020 11019 11020 11027 11032 11020 11017 11016 11019 11025 11030 11025 11023 11020 11021 11021 11022 11023 11023 11023 11023 11023 11023 11021 11020 11019 11018 11016 11015 11013 11011 11009 11007 11005 11002 10999 10996 10993 10990
11003 11004 11008 11010 11013 11014 11014 11018 11027 11028 11023 11022 11025 11027 11025 11023 11021 11019 11020 11022 11024 11023 11023 11023 11023 11023 11023 11022 11021 11020 11018 11017 11016 11014 11012 11010 11009 11007 11004 11001 10998 10995 10992
11003 11002 11002 11005 11007 11009 11009 11010 11014 11020 11021 11022 11022 11022 11022 11021 11018 11018 11020 11022 11023 11024 11023 11023 11022 11022 11022 11021 11020 11019 11019 11017 11016 11015 11012 11011 11009 11007 11005 11003 11000 10998 10997
10996 11002 11000 11002 11002 11004 11004 11004 11006 11010 11014 11015 11015 11017 11018 11018 11016 11019 11019 11022 11022 11023 11022 11022 11022 11021 11021 11020 11019 11018 11018 11017 11016 11015 11013 11011 11010 11007 11006 11004 11002 11001 11000
10986 10994 11002 11000 11000 11000 11000 10999 11001 11002 11004 11006 11007 11009 11011 11013 11014 11017 11019 11021 11021 11020 11020 11020 11020 11020 11019 11019 11019 11018 11017 11016 11016 11015 11013 11012 11010 11008 11007 11005 11004 11003 11002
10976 10982 10987 10992 10992 10994 10995 10995 10995 10996 10998 10999 11002 11003 11006 11008 11011 11013 11016 11018 11018 11017 11018 11018 11017 11017 11017 11017 11016 11016 11016 11016 11015 11014 11013 11012 11010 11009 11008 11007 11005 11004 11004
10964 10968 10974 10979 10981 10985 10988 10991 10992 10992 10992 10993 10996 10998 11000 11003 11007 11009 11010 11012 11013 11014 11014 11014 11014 11014 11014 11015 11015 11014 11015 11014 11014 11013 11013 11012 11011 11010 11010 11008 11006 11005 11005
10947 10953 10960 10965 10970 10974 10976 10981 10984 10984 10986 10986 10988 10992 10994 10995 10999 11002 11004 11006 11007 11008 11008 11009 11010 11010 11010 11012 11012 11012 11012 11012 11012 11011 11012 11012 11011 11011 11011 11009 11008 11007 11006
10932 10938 10945 10951 10955 10960 10964 10966 10969 10974 10977 10979 10980 10982 10985 10988 10990 10993 10997 10999 10999 11001 11002 11003 11004 11005 11006 11007 11008 11009 11009 11010 11009 11008 11009 11010 11011 11010 11010 11009 11008 11008 11008
10919 10925 10931 10935 10940 10945 10948 10953 10958 10960 10963 10967 10969 10972 10974 10977 10982 10985 10987 10991 10992 10991 10994 10996 10998 10999 11001 11002 11003 11004 11003 11006 11005 11004 11006 11007 11008 11008 11008 11007 11006 11007 11006
10901 10906 10912 10918 10924 10929 10934 10939 10943 10948 10952 10955 10957 10961 10963 10966 10970 10973 10979 10981 10983 10984 10987 10988 10990 10992 10995 10996 10997 10998 10997 11001 11001 11000 11000 11002 11004 11005 11005 11005 11004 11004 11005
10880 10887 10893 10899 10906 10912 10917 10922 10927 10932 10936 10941 10946 10948 10952 10955 10959 10963 10967 10971 10974 10977 10980 10981 10984 10986 10987 10989 10990 10989 10989 10993 10994 10995 10996 10997 10998 10999 11001 11001 11001 11001 11000
10857 10864 10871 10879 10886 10892 10898 10904 10911 10916 10921 10926 10931 10936 10939 10944 10947 10951 10957 10962 10965 10967 10968 10973 10976 10978 10979 10981 10984 10985 10985 10988 10991 10992 10994 10996 10996 10996 10996 10997 10997 10997 10996
10832 10840 10849 10856 10863 10870 10879 10885 10892 10899 10905 10910 10916 10921 10926 10931 10936 10941 10946 10951 10953 10956 10959 10962 10966 10970 10973 10973 10975 10977 10980 10983 10988 10992 10995 10997 10998 10996 10994 10994 10994 10993 10991
10806 10815 10823 10832 10839 10847 10855 10863 10871 10879 10886 10892 10898 10905 10910 10915 10921 10927 10933 10938 10942 10945 10948 10952 10956 10958 10961 10964 10966 10970 10975 10981 10986 10989 10992 10993 10995 10996 10994 10992 10991 10990 10988
10777 10787 10796 10805 10814 10822 10831 10840 10849 10856 10863 10872 10879 10887 10892 10897 10904 10910 10916 10922 10929 10933 10937 10939 10942 10946 10951 10955 10959 10963 10970 10976 10978 10978 10977 10978 10980 10985 10988 10988 10985 10984 10983
10744 10754 10764 10774 10784 10794 10804 10814 10823 10831 10839 10849 10856 10864 10872 10878 10884 10891 10898 10904 10912 10920 10923 10926 10932 10935 10937 10943 10948 10955 10963 10962 10961 10959 10961 10966 10973 10976 10980 10981 10978 10977 10976
10707 10718 10729 10740 10750 10761 10772 10784 10795 10803 10813 10823 10831 10841 10849 10854 10861 10870 10877 10886 10892 10902 10907 10912 10918 10923 10927 10932 10937 10944 10949 10945 10943 10944 10943 10934 10966 10968 10970 10971 10971 10968 10968
10669 10680 10691 10702 10714 10726 10738 10752 10764 10775 10785 10794 10804 10814 10820 10830 10839 10847 10856 10865 10872 10879 10890 10895 10901 10908 10913 10917 10923 10930 10934 10929 10925 10928 10927 10937 10960 10955 10955 10955 10960 10956 10956
10631 10642 10654 10667 10678 10689 10702 10714 10726 10739 10752 10764 10774 10783 10790 10803 10815 10824 10832 10840 10848 10855 10865 10875 10882 10889 10895 10901 10907 10913 10919 10915 10910 10911 10915 10921 10932 10934 10937 10938 10941 10942 10943
10586 10598 10609 10622 10634 10646 10661 10673 10686 10699 10715 10730 10744 10752 10759 10771 10788 10799 10802 10814 10824 10831 10840 10850 10860 10867 10875 10880 10887 10892 10899 10898 10899 10902 10905 10912 10912 10913 10920 10920 10922 10925 10925
10547 10556 10567 10579 10590 10605 10618 10631 10644 10659 10676 10692 10704 10715 10727 10745 10760 10771 10777 10787 10794 10804 10814 10824 10834 10843 10851 10858 10864 10871 10876 10878 10882 10888 10891 10891 10890 10895 10898 10901 10904 10906 10909
10510 10519 10529 10539 10550 10563 10577 10585 10600 10616 10633 10648 10662 10676 10695 10709 10724 10742 10743 10741 10759 10773 10784 10796 10807 10817 10824 10833 10840 10846 10852 10856 10858 10861 10866 10870 10874 10878 10879 10880 10883 10887 10890
10476 10482 10490 10499 10509 10520 10531 10543 10555 10568 10581 10595 10615 10634 10651 10668 10683 10697 10707 10717 10732 10744 10756 10768 10779 10789 10797 10806 10814 10820 10827 10832 10835 10838 10842 10847 10851 10855 10860 10861 10863 10866 10868
10444 10450 10457 10464 10473 10482 10492 10503 10512 10522 10534 10551 10573 10589 10601 10621 10640 10659 10674 10684 10698 10712 10723 10734 10748 10760 10768 10778 10787 10793 10801 10806 10811 10816 10819 10823 10827 10832 10836 10839 10842 10844 10846
10417 10423 10429 10435 10442 10450 10458 10467 10477 10489 10503 10517 10532 10546 10560 10582 10601 10615 10631 10644 10659 10675 10690 10702 10715 10727 10737 10747 10758 10765 10773 10778 10785 10792 10796 10800 10804 10808 10813 10816 10818 10819 10824